Track PROMETHEUS 2-1 now! 10-day predictions PROMETHEUS 2-1 is classified as:
1 41854U 16067G 22137.35410020 .00006118 00000-0 50684-3 0 9994 2 41854 97.9893 268.5247 0009496 87.4850 272.7459 14.99198035301080